Location: Unspecified
(0.0000°N, 0.0000°E)
Time: 13:23:57
(UTC+00:00)

FORMOSAT 3A - Pass Details

Date: 23 May 2026
Orbit: 751 x 823 km, 72.0° (Epoch: 5 June)

Event Time Altitude Azimuth Distance (km) Brightness Sun altitude
Rises 19:28:42 0° 356° (N) 3,311 10.6 -21.4°
Reaches altitude 10° 19:31:12 10° 2° (N) 2,373 9.8 -22.0°
Enters shadow 19:36:18 48° 71° (ENE) 1,029 7.3 -23.2°
